Meteo orario Göle

Oggi, 16 Aprile, Venerdi

Tempo Temperatura Precipitazioni Vento Pressione Umidità
00:00 +2°C° 0 mm 0 m/s 594 mm Hg 83%
01:00 +2°C° 0 mm 0 m/s 594 mm Hg 83%
02:00 +1°C° 0 mm 0 m/s 594 mm Hg 83%
03:00 +2°C° 0 mm 1 m/s 594 mm Hg 84%
04:00 +2°C° 0 mm 1 m/s 594 mm Hg 85%
05:00 +2°C° 0 mm 1 m/s 594 mm Hg 86%
06:00 +2°C° 0 mm 1 m/s 594 mm Hg 87%
07:00 +3°C° 0 mm 1 m/s 595 mm Hg 81%
08:00 +5°C° 0 mm 1 m/s 595 mm Hg 76%
09:00 +6°C° 0 mm 2 m/s 596 mm Hg 70%
10:00 +7°C° 0 mm 2 m/s 596 mm Hg 63%
11:00 +8°C° 0 mm 3 m/s 597 mm Hg 56%
12:00 +9°C° 0 mm 3 m/s 597 mm Hg 49%
13:00 +10°C° 0 mm 3 m/s 597 mm Hg 45%
14:00 +10°C° 0 mm 3 m/s 597 mm Hg 42%
15:00 +11°C° 0 mm 3 m/s 597 mm Hg 39%
16:00 +10°C° 0 mm 3 m/s 597 mm Hg 43%
17:00 +9°C° 0 mm 2 m/s 597 mm Hg 47%
18:00 +10°C° 0 mm 1 m/s 596 mm Hg 51%
19:00 +9°C° 0 mm 1 m/s 596 mm Hg 53%
20:00 +7°C° 0 mm 1 m/s 596 mm Hg 56%
21:00 +6°C° 0 mm 1 m/s 596 mm Hg 58%
22:00 +6°C° 0 mm 1 m/s 596 mm Hg 59%
23:00 +6°C° 0 mm 1 m/s 596 mm Hg 61%

Domani, 17 Aprile, Sabato

Tempo Temperatura Precipitazioni Vento Pressione Umidità
00:00 +5°C° 0 mm 1 m/s 596 mm Hg 62%
01:00 +5°C° 0 mm 1 m/s 596 mm Hg 64%
02:00 +5°C° 0 mm 1 m/s 596 mm Hg 65%
03:00 +5°C° 0 mm 1 m/s 596 mm Hg 66%
04:00 +5°C° 0 mm 1 m/s 596 mm Hg 68%
05:00 +5°C° 0 mm 1 m/s 596 mm Hg 69%
06:00 +5°C° 0 mm 1 m/s 596 mm Hg 70%
07:00 +7°C° 0 mm 1 m/s 596 mm Hg 64%
08:00 +9°C° 0 mm 1 m/s 597 mm Hg 58%
09:00 +10°C° 0 mm 2 m/s 598 mm Hg 53%
10:00 +12°C° 0 mm 2 m/s 598 mm Hg 50%
11:00 +13°C° 0 mm 2 m/s 599 mm Hg 47%
12:00 +13°C° 0 mm 3 m/s 599 mm Hg 43%
13:00 +14°C° 0 mm 3 m/s 599 mm Hg 43%
14:00 +14°C° 0 mm 3 m/s 598 mm Hg 43%
15:00 +14°C° 0 mm 3 m/s 598 mm Hg 43%
16:00 +14°C° 0.1 mm 2 m/s 598 mm Hg 48%
17:00 +14°C° 0.1 mm 2 m/s 598 mm Hg 52%
18:00 +13°C° 0.1 mm 1 m/s 598 mm Hg 57%
19:00 +12°C° 0.2 mm 1 m/s 598 mm Hg 64%
20:00 +10°C° 0.2 mm 1 m/s 598 mm Hg 70%
21:00 +9°C° 0.2 mm 1 m/s 597 mm Hg 76%
22:00 +8°C° 0 mm 1 m/s 597 mm Hg 79%
23:00 +8°C° 0 mm 1 m/s 597 mm Hg 82%

Dopodomani, 18 Aprile, Domenica

Tempo Temperatura Precipitazioni Vento Pressione Umidità
00:00 +6°C° 0 mm 0 m/s 597 mm Hg 84%
01:00 +7°C° 0 mm 1 m/s 596 mm Hg 84%
02:00 +7°C° 0 mm 1 m/s 596 mm Hg 85%
03:00 +6°C° 0 mm 1 m/s 596 mm Hg 85%
04:00 +6°C° 0 mm 1 m/s 596 mm Hg 85%
05:00 +6°C° 0 mm 1 m/s 596 mm Hg 85%
06:00 +6°C° 0 mm 1 m/s 596 mm Hg 84%
07:00 +8°C° 0 mm 1 m/s 597 mm Hg 77%
08:00 +9°C° 0 mm 2 m/s 598 mm Hg 70%
09:00 +12°C° 0 mm 2 m/s 598 mm Hg 63%
10:00 +12°C° 0.1 mm 3 m/s 599 mm Hg 57%
11:00 +13°C° 0.1 mm 3 m/s 599 mm Hg 52%
12:00 +14°C° 0.1 mm 3 m/s 599 mm Hg 46%
13:00 +14°C° 0.1 mm 3 m/s 599 mm Hg 45%
14:00 +14°C° 0.1 mm 3 m/s 598 mm Hg 45%
15:00 +14°C° 0.1 mm 3 m/s 598 mm Hg 44%
16:00 +12°C° 0.5 mm 3 m/s 598 mm Hg 56%
17:00 +11°C° 0.5 mm 3 m/s 598 mm Hg 67%
18:00 +9°C° 0.5 mm 3 m/s 598 mm Hg 78%
19:00 +8°C° 0 mm 2 m/s 598 mm Hg 81%
20:00 +7°C° 0 mm 2 m/s 598 mm Hg 84%
21:00 +8°C° 0 mm 1 m/s 598 mm Hg 87%
22:00 +7°C° 0 mm 1 m/s 597 mm Hg 88%
23:00 +7°C° 0 mm 1 m/s 597 mm Hg 89%

19 Aprile, Lunedi

Tempo Temperatura Precipitazioni Vento Pressione Umidità
00:00 +7°C° 0 mm 1 m/s 597 mm Hg 90%
01:00 +6°C° 0 mm 1 m/s 597 mm Hg 90%
02:00 +6°C° 0 mm 1 m/s 597 mm Hg 90%
03:00 +6°C° 0 mm 1 m/s 597 mm Hg 89%
04:00 +6°C° 0 mm 1 m/s 597 mm Hg 90%
05:00 +6°C° 0 mm 1 m/s 597 mm Hg 90%
06:00 +6°C° 0 mm 1 m/s 597 mm Hg 90%
07:00 +8°C° 0 mm 1 m/s 597 mm Hg 82%
08:00 +9°C° 0 mm 2 m/s 598 mm Hg 74%
09:00 +12°C° 0 mm 2 m/s 599 mm Hg 65%
10:00 +13°C° 0 mm 2 m/s 599 mm Hg 59%
11:00 +14°C° 0 mm 2 m/s 599 mm Hg 53%
12:00 +14°C° 0 mm 3 m/s 599 mm Hg 47%
13:00 +16°C° 0 mm 3 m/s 599 mm Hg 46%
14:00 +16°C° 0 mm 2 m/s 599 mm Hg 45%
15:00 +16°C° 0 mm 2 m/s 599 mm Hg 44%
16:00 +16°C° 0 mm 2 m/s 599 mm Hg 47%
17:00 +16°C° 0 mm 1 m/s 599 mm Hg 50%
18:00 +15°C° 0 mm 1 m/s 599 mm Hg 53%
19:00 +14°C° 0 mm 1 m/s 598 mm Hg 56%
20:00 +13°C° 0 mm 1 m/s 598 mm Hg 59%
21:00 +12°C° 0 mm 2 m/s 598 mm Hg 62%
22:00 +12°C° 0 mm 2 m/s 597 mm Hg 61%
23:00 +12°C° 0 mm 2 m/s 597 mm Hg 60%

20 Aprile, Martedi

Tempo Temperatura Precipitazioni Vento Pressione Umidità
00:00 +12°C° 0 mm 2 m/s 597 mm Hg 59%
01:00 +12°C° 0 mm 2 m/s 597 mm Hg 60%
02:00 +12°C° 0 mm 2 m/s 596 mm Hg 61%
03:00 +12°C° 0 mm 2 m/s 596 mm Hg 61%
04:00 +10°C° 0 mm 2 m/s 596 mm Hg 63%
05:00 +10°C° 0 mm 2 m/s 596 mm Hg 64%
06:00 +10°C° 0 mm 2 m/s 595 mm Hg 65%
07:00 +13°C° 0 mm 2 m/s 596 mm Hg 59%
08:00 +14°C° 0 mm 3 m/s 596 mm Hg 52%
09:00 +16°C° 0 mm 3 m/s 597 mm Hg 46%
10:00 +17°C° 0 mm 4 m/s 597 mm Hg 43%
11:00 +17°C° 0 mm 6 m/s 597 mm Hg 40%
12:00 +18°C° 0 mm 7 m/s 597 mm Hg 38%
13:00 +18°C° 0 mm 8 m/s 596 mm Hg 37%
14:00 +18°C° 0 mm 8 m/s 596 mm Hg 37%
15:00 +20°C° 0 mm 8 m/s 595 mm Hg 37%
16:00 +16°C° 0.5 mm 6 m/s 595 mm Hg 48%
17:00 +13°C° 0.5 mm 4 m/s 595 mm Hg 59%
18:00 +11°C° 0.5 mm 3 m/s 594 mm Hg 71%
19:00 +10°C° 0 mm 2 m/s 594 mm Hg 73%
20:00 +9°C° 0 mm 2 m/s 594 mm Hg 76%
21:00 +9°C° 0 mm 1 m/s 594 mm Hg 79%
22:00 +9°C° 0.1 mm 1 m/s 594 mm Hg 82%
23:00 +8°C° 0.1 mm 1 m/s 593 mm Hg 85%

21 Aprile, Mercoledi

Tempo Temperatura Precipitazioni Vento Pressione Umidità
00:00 +8°C° 0.1 mm 1 m/s 593 mm Hg 89%
01:00 +7°C° 0 mm 1 m/s 593 mm Hg 90%
02:00 +7°C° 0 mm 1 m/s 593 mm Hg 92%
03:00 +6°C° 0 mm 1 m/s 593 mm Hg 93%
04:00 +6°C° 0 mm 1 m/s 593 mm Hg 94%
05:00 +6°C° 0 mm 1 m/s 593 mm Hg 94%
06:00 +6°C° 0 mm 1 m/s 593 mm Hg 95%
07:00 +7°C° 0 mm 1 m/s 593 mm Hg 87%
08:00 +9°C° 0 mm 1 m/s 594 mm Hg 80%
09:00 +10°C° 0 mm 1 m/s 594 mm Hg 72%
10:00 +12°C° 0 mm 2 m/s 595 mm Hg 62%
11:00 +12°C° 0 mm 3 m/s 595 mm Hg 53%
12:00 +14°C° 0 mm 3 m/s 595 mm Hg 43%
13:00 +14°C° 0 mm 3 m/s 595 mm Hg 43%
14:00 +14°C° 0 mm 3 m/s 595 mm Hg 42%
15:00 +16°C° 0 mm 3 m/s 595 mm Hg 41%
16:00 +13°C° 0.2 mm 3 m/s 595 mm Hg 49%
17:00 +12°C° 0.2 mm 3 m/s 595 mm Hg 57%
18:00 +11°C° 0.2 mm 3 m/s 595 mm Hg 65%
19:00 +9°C° 0.4 mm 3 m/s 595 mm Hg 73%
20:00 +8°C° 0.4 mm 3 m/s 595 mm Hg 80%
21:00 +6°C° 0.4 mm 2 m/s 595 mm Hg 88%
22:00 +6°C° 0 mm 2 m/s 595 mm Hg 88%
23:00 +5°C° 0 mm 2 m/s 595 mm Hg 89%
Mostrare altro

Abbiamo bisogno del tuo consenso

Meteoprog e i nostri fornitori di servizi possono memorizzare e accedere a dati personali come cookie, identificatori di dispositivi o altre tecnologie simili sul tuo dispositivo e possono elaborare tali dati per personalizzare i contenuti e gli annunci, nonché fornire funzionalità dei social media e analizzarne il traffico.

  • Archiviare e/o accedere alle informazioni sul tuo dispositivo

    Cookie, identificatori di dispositivi o altre informazioni possono essere memorizzati o resi accessibili sul tuo dispositivo per le finalità sopra indicate.

  • Annunci e contenuti personalizzati, misurazione di annunci e contenuti, approfondimenti sul pubblico e sviluppo di prodotti

    Gli annunci e i contenuti possono essere personalizzati in base a un profilo. È possibile aggiungere più dati per personalizzare meglio annunci e contenuti. È possibile misurare il rendimento degli annunci e dei contenuti. È possibile ricavare informazioni sul pubblico che ha visto gli annunci e i contenuti. Tali dati possono essere utilizzati per sviluppare o migliorare l'esperienza, i sistemi e il software dell'utente.

Cliccando su “Accetto”, acconsenti all'uso di cookie, identificatori di dispositivo, web beacon o altre tecnologie simili. Puoi modificare le impostazioni nel browser del tuo dispositivo.

Per determinati scopi, è possibile fare affidamento su interessi legali, piuttosto che sul consenso. Puoi approfondire questo argomento consultando la nostra Informativa sulla privacy e sui cookie.